Showing default

FLOCK 4Y 7, 55032

Orbit data source: Space-Track

FLOCK 4Y 7, 55032 is a payload satellite owned by Planet (US) in SSO that was launched on Tue, 03 Jan 2023 UTC via an FALCON 9 launch vehicle from the Air Force Eastern Test Range (AFETR). Payload-class satellites include a variety of spacecraft equipped with specific instruments for various scientific and technological missions. These include communications satellites like Starlink; space stations such as the ISS; scientific satellites like the Hubble; Earth observation satellites from companies like Planet Labs, Umbra, and HawkEye 360; GPS; miniature CubeSats for education and research; and military/defense satellites.

Not visible in the next 10 days
Identifier
55032, 2023-001Z
Orbit
SSO
Country
Flag of USUS
Related business
Manufacturer
Planet
Mission
Non-operational Commercial Imaging
Bus & Motor
CUBESAT 3U, Unknown motor
Mass
5.7 kg wet, 5.7 kg dry
Launch date (UTC)
2023-01-03 (3 years ago)
Launch vehicle
FALCON 9
Launch site
Air Force Eastern Test Range (AFETR)
Object type
Payload
Rocket body
Debris
Shape & HBR
Box + 2 Pan, 1.0 m
Radar Cross Section
0.108 m², Medium (>0.1 m² and < 1m²)

Expand to show TLE details & history
Last TLE update: 9 hours ago

TLE from 9 hours ago
0 FLOCK 4Y 7
1 55032U 23001Z   25286.94811872  .02719500  16255-1  31360-2 0  9993
2 55032  97.3430   3.8428 0009808 274.6787  85.3378 16.13066073155518
Epoch: 2025-10-13T22:45Z
TLE epoch observation values (Epoch: 2025-10-13T22:45:17.457Z)
Latitude
-0.00002°
Longitude
-0.22351°
Altitude
241.142 km
Speed
7.762 km/s
True Right ascension
00h 15m 22s
True Declination
0° 00' 00"
Sunlit
Object was in full shadow at epoch
Visualization orbit readout
Latitude
Unknown
Longitude
Unknown
Altitude
Unknown
Speed
Unknown
Apparent Right ascension
Unknown
Apparent Declination
Unknown
Sunlit
N/A
Visualization observer readout
Local Sidereal Time
02:30:13
Azimuth
Unknown
Elevation
Unknown
Doppler factor
Unknown
Orbital elements
Apogee altitude
241.772 km
Perigee altitude
228.799 km
Semi-major axis
6,613.423 km
Eccentricity
0.00098
Inclination
97.343°
RAAN
3.8428°
Arg. of periapsis
274.6787°
True anomaly
85.44983°
Mean anomaly
85.3378°
Eccentric anomaly
85.39381°
Mean motion
4.03556 °/min
Orbital period
89.21 mins
BSTAR
0.003136
Loading maneuver chart data...
Computing Atmospheric mass density...
Loading historical data...
Loading historical data...
Loading historical data...
Loading historical data...
Loading historical data...
Loading historical data...
Loading historical data...

Documentation

Showing up to 5 results
|